PulseSat

PulseSat

COSMOS 2492 (754)

Last updated on Jan. 17, 2019, 2:58 a.m. UTC

1 39620U 14012A   19016.70422675 -.00000005  00000-0  10000-3 0  9998
2 39620  65.5665  45.0349 0015253 319.7472 350.9494  2.13103397 37518
UTC
Height (km)
Latitude
Longitude
Inclination
Orbital Period

Next 30 passes for location: Hong Kong

Rise time Rise Azimuth (degrees) Set time Set Azimuth (degrees) Duration Max altitude (degrees)

No matching passes for this satellites

PulseSat

PulseSat is the new satellites software and hardware trackering solution by Pulsely.
Satellite Two Line Element Set source: US Air Force Space Command

Download PulseSat for iOS
© 2017 Pulsely Limited